This demonstration page uses our WeatherBlox Daily Observations layout. Learn more.

38.89511, -77.03637

Hourly Observations for August 8, 2015

Temp ( °F °C ) Dew Point ( °F °C ) Humidity (%) Winds ( mph kmh ) Pressure ( in mb ) Visibility ( mi km ) Precip ( " mm )
12:52 am 00:52 Cloudy 78 25.6 64 17.8 62 62 ENE 7 11 29.91 1013 10 16.0934 0 0
1:52 am 01:52 Cloudy 77 25 63 17.2 62 62 NE 8 13 29.9 1013 10 16.0934 0 0
2:52 am 02:52 Cloudy 77 25 62 16.7 60 60 NE 7 11 29.9 1013 10 16.0934 0 0
3:52 am 03:52 Cloudy 76 24.4 61 16.1 60 60 NNE 9 15 29.91 1013 10 16.0934 0 0
4:52 am 04:52 Cloudy 75 23.9 61 16.1 62 62 NNE 8 13 29.91 1013 10 16.0934 0 0
5:52 am 05:52 Mostly Cloudy 75 23.9 61 16.1 62 62 NE 8 13 29.91 1013 10 16.0934 0 0
6:52 am 06:52 Mostly Cloudy 74 23.3 61 16.1 64 64 NE 8 13 29.93 1014 10 16.0934 0 0
7:52 am 07:52 Mostly Cloudy 74 23.3 61 16.1 64 64 NNE 10 17 29.95 1014 10 16.0934 0 0
8:52 am 08:52 Mostly Cloudy 77 25 62 16.7 60 60 NE 9 15 29.96 1015 10 16.0934 0 0
9:52 am 09:52 Mostly Cloudy 78 25.6 63 17.2 60 60 NE 8 13 29.98 1015 10 16.0934 0 0
10:52 am 10:52 Mostly Cloudy 81 27.2 63 17.2 54 54 NNE 8 13 29.99 1016 10 16.0934 0 0
11:52 am 11:52 Mostly Cloudy 84 28.9 60 15.6 44 44 NE 12 19 29.98 1015 10 16.0934 0 0
12:52 pm 12:52 Mostly Cloudy 85 29.4 59 15 42 42 E 10 17 29.96 1014 10 16.0934 0 0
1:52 pm 13:52 Mostly Cloudy 86 30 59 15 40 40 ENE 10 17 29.96 1014 10 16.0934 0 0
2:52 pm 14:52 Mostly Cloudy 88 31.1 59 15 38 38 E 13 20 29.96 1015 10 16.0934 0 0
3:52 pm 15:52 Mostly Cloudy 87 30.6 60 15.6 40 40 ENE 12 19 29.94 1014 10 16.0934 0 0
4:52 pm 16:52 Mostly Cloudy 85 29.4 57 13.9 39 39 ENE 7 11 29.95 1014 10 16.0934 0 0
5:52 pm 17:52 Mostly Cloudy 86 30 59 15 40 40 ENE 10 17 29.94 1014 10 16.0934 0 0
6:52 pm 18:52 Mostly Cloudy 86 30 58 14.4 39 39 ENE 6 9 29.94 1014 10 16.0934 0 0
7:52 pm 19:52 Partly Cloudy 81 27.2 62 16.7 53 53 ESE 7 11 29.95 1014 10 16.0934 0 0
8:52 pm 20:52 Partly Cloudy 79 26.1 62 16.7 56 56 SSE 5 7 29.96 1015 10 16.0934 0 0
9:52 pm 21:52 Partly Cloudy 78 25.6 63 17.2 60 60 SSE 6 9 29.98 1015 10 16.0934 0 0
10:52 pm 22:52 Mostly Cloudy 76 24.4 63 17.2 64 64 S 6 9 29.98 1015 10 16.0934 0 0
11:52 pm 23:52 Mostly Cloudy 75 23.9 63 17.2 66 66 SSE 5 7 29.98 1015 10 16.0934 0 0

Powered by AerisWeather